GW6074 Weather Reports


Display with metric or nautical units.
time (UTC)temp
F
wind
direction
speed
MPH
gust
MPH
rain 1hr
in
rain 24hr
in
rain mn
in
humidity
%
barometer
mb
20260505130303 50 15 16.0 22.0 0.12 0.71 0.71 79
20260505124754 51 0 11.0 14.0 0.00 0.69 0.69 80
20260505124251 51 13 9.0 10.0 0.00 0.69 0.69 81
20260505123746 51 20 8.0 9.0 0.00 0.69 0.69 82
20260505123243 51 332 7.0 8.0 0.07 0.69 0.69 84
20260505122740 51 344 6.0 10.0 0.07 0.69 0.69 84
20260505122237 51 26 6.0 8.0 0.00 0.68 0.68 82
20260505121733 51 1 6.0 8.0 0.00 0.68 0.68 82
20260505121230 51 350 6.0 7.0 0.05 0.68 0.68 83
20260505120726 51 341 5.0 8.0 0.05 0.68 0.68 81
20260505120222 51 4 7.0 8.0 0.00 0.67 0.67 80
20260505115721 51 358 4.0 7.0 0.00 0.67 0.67 81
20260505115219 51 18 7.0 10.0 0.00 0.67 0.67 81
20260505114716 51 23 6.0 9.0 0.00 0.67 0.67 82
20260505114212 51 34 6.0 7.0 0.00 0.67 0.67 81
20260505113709 51 59 4.0 7.0 0.00 0.67 0.67 82
20260505113205 51 49 4.0 7.0 0.07 0.67 0.67 82
20260505112702 51 24 7.0 9.0 0.12 0.67 0.67 83
20260505112200 51 66 5.0 9.0 0.12 0.66 0.66 83
20260505111659 51 56 8.0 11.0 0.19 0.65 0.65 82
20260505111155 51 41 10.0 13.0 0.19 0.63 0.63 81
20260505110651 52 36 8.0 10.0 0.17 0.61 0.61 80
20260505110149 53 358 10.0 13.0 0.17 0.59 0.59 79
20260505102125 57 7 7.0 15.0 0.00 0.48 0.48 72
20260505101623 58 22 9.0 11.0 0.00 0.48 0.48 71
20260505101119 58 17 9.0 10.0 0.00 0.48 0.48 76
20260505100615 58 38 8.0 9.0 0.00 0.48 0.48 80
20260505100113 58 343 8.0 9.0 0.00 0.48 0.48 85
20260505095609 58 143 2.0 4.0 0.00 0.48 0.48 90
20260505095105 58 256 3.0 6.0 0.00 0.48 0.48 90
20260505094602 58 246 6.0 10.0 0.00 0.48 0.48 90
20260505094058 58 233 4.0 8.0 0.00 0.48 0.48 90
20260505093554 58 250 5.0 7.0 0.00 0.48 0.48 90
20260505093052 58 242 5.0 7.0 0.00 0.48 0.48 91
20260505092549 58 226 4.0 6.0 0.00 0.48 0.48 91
20260505092048 58 228 6.0 8.0 0.00 0.48 0.48 91
20260505091544 58 213 8.0 11.0 0.00 0.48 0.48 93
20260505091043 58 246 7.0 11.0 0.00 0.48 0.48 94
20260505090540 58 197 4.0 4.0 0.00 0.48 0.48 94
20260505090038 58 154 0.0 3.0 0.00 0.48 0.48 94
20260505085535 58 149 0.0 1.0 0.00 0.48 0.48 94
20260505085033 58 140 0.0 0.0 0.00 0.48 0.48 94
20260505084531 58 173 5.0 8.0 0.00 0.48 0.48 94
20260505084029 58 165 2.0 6.0 0.00 0.48 0.48 94
20260505083526 58 190 0.0 4.0 0.00 0.48 0.48 94
20260505083022 58 336 6.0 7.0 0.00 0.48 0.48 93
20260505082518 58 326 4.0 7.0 0.00 0.48 0.48 93
20260505082015 59 7 7.0 9.0 0.00 0.48 0.48 92
20260505081511 60 19 8.0 14.0 0.00 0.48 0.48 89
20260505081009 60 163 1.0 8.0 0.05 0.48 0.48 83
20260505080505 60 280 3.0 8.0 0.12 0.48 0.48 83
20260505080000 59 254 6.0 9.0 0.12 0.47 0.47 92
20260505075457 58 240 5.0 8.0 0.17 0.46 0.46 94
20260505074955 58 178 6.0 11.0 0.24 0.45 0.45 94
20260505074452 58 236 7.0 11.0 0.24 0.43 0.43 93
20260505073949 58 238 8.0 10.0 0.31 0.41 0.41 92
20260505073446 58 240 11.0 16.0 0.26 0.39 0.39 92
20260505072943 58 234 12.0 17.0 0.19 0.36 0.36 91
20260505072439 58 210 9.0 11.0 0.19 0.34 0.34 90
20260505071936 58 252 12.0 14.0 0.19 0.32 0.32 89
20260505071432 59 226 12.0 16.0 0.17 0.31 0.31 88
20260505070930 59 248 13.0 16.0 0.05 0.29 0.29 87
20260505070427 59 249 14.0 17.0 0.00 0.28 0.28 87
20260505065922 58 250 15.0 18.0 0.00 0.28 0.28 86
20260505065419 58 242 13.0 15.0 0.00 0.28 0.28 84
20260505064916 58 232 11.0 14.0 0.07 0.28 0.28 84
20260505064413 58 239 10.0 11.0 0.07 0.28 0.28 85
20260505063911 57 228 5.0 7.0 0.00 0.27 0.27 87
20260505063407 57 187 6.0 8.0 0.05 0.27 0.27 87
20260505062904 57 202 4.0 8.0 0.05 0.27 0.27 87
20260505062401 57 217 5.0 9.0 0.07 0.26 0.26 86
20260505061858 58 215 9.0 11.0 0.12 0.26 0.26 89
20260505061356 57 206 4.0 8.0 0.24 0.25 0.25 91
20260505060853 58 193 4.0 6.0 0.26 0.24 0.24 94
20260505060350 57 195 9.0 9.0 0.19 0.21 0.21 93
20260505055846 58 192 1.0 3.0 0.24 0.20 0.20 92
20260505055342 58 118 1.0 2.0 1.06 0.18 0.18 91
20260505054839 61 181 5.0 15.0 0.90 0.15 0.15 84
20260505054337 66 314 9.0 21.0 0.00 0.00 0.00 72
20260505053835 65 240 10.0 15.0 0.00 0.00 0.00 71
20260505053331 66 205 11.0 19.0 0.00 0.00 0.00 71
20260505052828 67 205 10.0 24.0 0.00 0.00 0.00 66
20260505052325 67 210 12.0 17.0 0.00 0.00 0.00 66
20260505051822 67 217 11.0 22.0 0.00 0.00 0.00 65
20260505051320 67 215 15.0 18.0 0.00 0.00 0.00 65
20260505050818 67 198 11.0 17.0 0.00 0.00 0.00 64
20260505050316 68 229 11.0 15.0 0.00 0.00 0.00 64
20260505041746 68 233 18.0 22.0 0.00 0.22 0.22 62
20260505041243 68 200 14.0 18.0 0.00 0.22 0.22 63
20260505040740 68 212 12.0 18.0 0.00 0.22 0.22 63
20260505040238 68 222 12.0 25.0 0.00 0.22 0.22 63
20260505035734 68 198 14.0 21.0 0.00 0.22 0.22 63
20260505035230 68 207 13.0 22.0 0.00 0.22 0.22 64
20260505034727 68 186 11.0 18.0 0.00 0.22 0.22 63
20260505034224 68 166 14.0 23.0 0.00 0.22 0.22 64
20260505033721 68 191 9.0 17.0 0.00 0.22 0.22 63
20260505033218 68 206 11.0 17.0 0.00 0.22 0.22 64
20260505032716 68 213 15.0 22.0 0.00 0.22 0.22 63
20260505032212 68 294 12.0 21.0 0.00 0.22 0.22 63
20260505031710 68 190 11.0 21.0 0.00 0.22 0.22 64
20260505031206 68 169 10.0 23.0 0.00 0.22 0.22 64
20260505030703 68 189 17.0 26.0 0.00 0.22 0.22 63
20260505030159 68 183 10.0 21.0 0.00 0.22 0.22 62
20260505025655 69 209 17.0 25.0 0.00 0.22 0.22 62
20260505025153 69 208 13.0 23.0 0.00 0.22 0.22 61
20260505024651 69 207 16.0 23.0 0.00 0.22 0.22 61
20260505024147 69 205 14.0 18.0 0.00 0.22 0.22 61
20260505023645 69 226 15.0 19.0 0.00 0.22 0.22 61
20260505023142 69 188 16.0 26.0 0.00 0.22 0.22 61
20260505022640 69 210 17.0 24.0 0.00 0.22 0.22 61
20260505022137 69 170 16.0 22.0 0.00 0.22 0.22 61
20260505021633 68 213 17.0 22.0 0.00 0.22 0.22 62
20260505021130 68 192 17.0 21.0 0.00 0.22 0.22 62
20260505020626 68 202 17.0 26.0 0.00 0.22 0.22 62
20260505020122 68 196 17.0 24.0 0.00 0.22 0.22 62
20260505015619 68 203 15.0 24.0 0.00 0.22 0.22 63
20260505015116 68 217 15.0 21.0 0.00 0.22 0.22 64
20260505014613 68 193 15.0 19.0 0.00 0.22 0.22 63
20260505014110 68 214 13.0 19.0 0.00 0.22 0.22 62
20260505013607 68 225 11.0 22.0 0.00 0.22 0.22 63
20260505013104 68 210 13.0 17.0 0.00 0.22 0.22 65
20260505012602 68 182 11.0 17.0 0.00 0.22 0.22 64
20260505012059 68 188 15.0 23.0 0.00 0.22 0.22 63
20260505011554 69 100 13.0 19.0 0.00 0.22 0.22 62
20260505011052 69 194 9.0 17.0 0.00 0.22 0.22 62
20260505010547 69 191 11.0 18.0 0.00 0.22 0.22 61
20260505010044 69 194 17.0 22.0 0.00 0.22 0.22 60
20260505005540 69 189 15.0 21.0 0.00 0.22 0.22 60
20260505005038 69 191 18.0 21.0 0.00 0.22 0.22 61
20260505004535 68 233 15.0 21.0 0.00 0.22 0.22 63
20260505004031 67 280 15.0 24.0 0.00 0.22 0.22 65
20260505003529 68 205 19.0 23.0 0.00 0.22 0.22 64
20260505003026 68 198 8.0 23.0 0.00 0.22 0.22 64
20260505002521 69 221 11.0 17.0 0.00 0.22 0.22 62
20260505002020 70 242 13.0 17.0 0.00 0.22 0.22 60
20260505001517 71 207 11.0 16.0 0.00 0.22 0.22 59
20260505001014 71 228 12.0 17.0 0.00 0.22 0.22 57
20260505000511 72 240 11.0 16.0 0.00 0.22 0.22 55
20260505000009 72 238 10.0 14.0 0.00 0.22 0.22 55
20260504235505 72 220 13.0 18.0 0.00 0.22 0.22 54
20260504235002 73 246 9.0 14.0 0.00 0.22 0.22 54
20260504234459 73 206 15.0 19.0 0.00 0.22 0.22 53
20260504233955 73 211 15.0 18.0 0.00 0.22 0.22 55
20260504233451 73 204 12.0 22.0 0.00 0.22 0.22 54
20260504232948 72 178 10.0 16.0 0.00 0.22 0.22 55
20260504232445 72 199 18.0 22.0 0.00 0.22 0.22 55
20260504231943 72 211 9.0 15.0 0.00 0.22 0.22 57
20260504231439 72 198 15.0 19.0 0.00 0.22 0.22 55
20260504230935 72 239 15.0 21.0 0.00 0.22 0.22 55
20260504230432 72 204 18.0 25.0 0.00 0.22 0.22 54
20260504225931 72 216 9.0 17.0 0.00 0.22 0.22 57
20260504225427 72 238 9.0 18.0 0.00 0.22 0.22 57
20260504224925 72 226 9.0 16.0 0.00 0.22 0.22 57
20260504224421 73 195 11.0 25.0 0.00 0.22 0.22 56
20260504223919 73 205 8.0 17.0 0.00 0.22 0.22 56
20260504223414 73 227 10.0 17.0 0.00 0.22 0.22 55
20260504222910 73 261 14.0 19.0 0.00 0.22 0.22 54
20260504222407 73 254 12.0 19.0 0.00 0.22 0.22 52
20260504221906 74 183 17.0 23.0 0.00 0.22 0.22 52
20260504221402 74 231 14.0 21.0 0.00 0.22 0.22 51
20260504220859 74 217 12.0 24.0 0.00 0.22 0.22 52
20260504220356 74 209 15.0 29.0 0.00 0.22 0.22 51
20260504215853 74 154 11.0 16.0 0.00 0.22 0.22 52
20260504215349 75 203 21.0 27.0 0.00 0.22 0.22 50
20260504214845 75 173 15.0 22.0 0.00 0.22 0.22 51
20260504214343 75 209 10.0 18.0 0.00 0.22 0.22 53
20260504213839 74 220 12.0 22.0 0.00 0.22 0.22 52
20260504213335 75 197 11.0 24.0 0.00 0.22 0.22 54
20260504212833 74 196 17.0 22.0 0.00 0.22 0.22 50
20260504212328 74 192 9.0 17.0 0.00 0.22 0.22 53
20260504211827 74 132 11.0 25.0 0.00 0.22 0.22 51
20260504211327 74 193 17.0 29.0 0.00 0.22 0.22 52
20260504210825 74 184 11.0 18.0 0.00 0.22 0.22 52
20260504210322 74 136 10.0 25.0 0.00 0.22 0.22 55
20260504205819 73 212 18.0 26.0 0.00 0.22 0.22 53
20260504205317 73 223 15.0 21.0 0.00 0.22 0.22 54
20260504204815 74 235 13.0 15.0 0.00 0.22 0.22 53
20260504204313 74 224 8.0 18.0 0.00 0.22 0.22 56
20260504203812 74 227 9.0 18.0 0.00 0.22 0.22 56
20260504203309 74 217 13.0 29.0 0.00 0.22 0.22 54
20260504202810 74 212 14.0 23.0 0.00 0.22 0.22 55
20260504202308 73 100 11.0 18.0 0.00 0.22 0.22 55
20260504201804 73 195 9.0 22.0 0.00 0.22 0.22 54
20260504201301 73 160 11.0 25.0 0.00 0.22 0.22 53
20260504200759 73 190 11.0 18.0 0.00 0.22 0.22 55
20260504200255 73 197 14.0 18.0 0.00 0.22 0.22 57
20260504195752 73 214 11.0 24.0 0.00 0.22 0.22 57
20260504195247 72 195 14.0 19.0 0.00 0.22 0.22 58
20260504194745 72 220 15.0 30.0 0.00 0.22 0.22 58
20260504194241 71 234 13.0 16.0 0.00 0.22 0.22 60
20260504193737 71 200 12.0 19.0 0.00 0.22 0.22 60
20260504193235 70 270 15.0 19.0 0.00 0.22 0.22 61
20260504192733 70 244 17.0 21.0 0.00 0.22 0.22 63
20260504192231 69 208 16.0 22.0 0.00 0.22 0.22 66
20260504191729 69 242 15.0 22.0 0.00 0.22 0.22 65
20260504191226 69 251 17.0 22.0 0.00 0.22 0.22 65
20260504190721 68 246 12.0 15.0 0.00 0.22 0.22 68
20260504190217 67 232 11.0 17.0 0.00 0.22 0.22 69
20260504185714 67 240 10.0 15.0 0.00 0.22 0.22 69
20260504185211 67 239 14.0 19.0 0.00 0.22 0.22 65
20260504184707 67 229 11.0 13.0 0.00 0.22 0.22 68
20260504184203 67 240 11.0 15.0 0.00 0.22 0.22 66
20260504183659 67 214 9.0 13.0 0.00 0.22 0.22 65
20260504183156 68 214 9.0 18.0 0.00 0.22 0.22 65
20260504182654 68 215 5.0 15.0 0.00 0.22 0.22 65
20260504182151 68 180 8.0 13.0 0.00 0.22 0.22 67
20260504181649 68 216 9.0 11.0 0.00 0.22 0.22 67
20260504181146 69 197 7.0 11.0 0.00 0.22 0.22 65
20260504180645 69 211 13.0 17.0 0.00 0.22 0.22 60
20260504180143 70 215 11.0 19.0 0.00 0.22 0.22 62
20260504175640 71 228 19.0 25.0 0.00 0.22 0.22 59
20260504175137 72 235 13.0 19.0 0.00 0.22 0.22 62
20260504174635 71 251 13.0 19.0 0.00 0.22 0.22 62
20260504174131 70 229 12.0 19.0 0.00 0.22 0.22 64
20260504173629 70 221 13.0 21.0 0.00 0.22 0.22 62
20260504173126 71 232 11.0 14.0 0.00 0.22 0.22 61
20260504172622 71 237 15.0 19.0 0.00 0.22 0.22 60
20260504172119 71 198 11.0 18.0 0.00 0.22 0.22 64
20260504171615 71 226 13.0 22.0 0.00 0.22 0.22 65
20260504171113 71 219 11.0 14.0 0.00 0.22 0.22 62
20260504170608 71 222 8.0 13.0 0.00 0.22 0.22 63
20260504170107 70 181 6.0 14.0 0.00 0.22 0.22 61
20260504150952 59 184 12.0 15.0 0.00 0.21 0.21 84
20260504150449 59 77 8.0 10.0 0.00 0.21 0.21 83
20260504140915 58 219 13.0 15.0 0.00 0.20 0.20 81
20260504140411 58 190 12.0 18.0 0.00 0.20 0.20 81